Location: Bosdarros
(43.2167°N, 0.3667°W)
Time: 21:09:52
(UTC+00:00)

METEOR 2-8 DEB - Pass Details

Date: 30 October 2021
Orbit: 830 x 870 km, 82.5° (Epoch: 27 November)

Event Time Altitude Azimuth Distance (km) Brightness Sun altitude
Rises 20:29:10 0° 349° (N) 3,469 ? -39.1°
Reaches altitude 10° 20:31:37 10° 348° (NNW) 2,527 ? -39.5°
Enters shadow 20:32:02 12° 348° (NNW) 2,369 ? -39.6°
